{"data":{"norad_id":50475,"epoch":"2026-09-20T01:55:43.218048Z","epoch_age_seconds":62101,"freshness":"FRESH","line1":"1 50475U 21132G   26263.08036132 -.00000511  00000+0 -14769-2 0  9999","line2":"2 50475  87.8968   2.2020 0001643 105.1119 255.0191 13.11417994228158","mean_motion":13.11417994,"eccentricity":0.0001643,"inclination_deg":87.8968,"raan_deg":2.202,"arg_perigee_deg":105.1119,"mean_anomaly_deg":255.0191,"bstar":-0.0014769,"rev_number":22815,"period_min":109.80480720779,"perigee_km":1216.4306552774,"apogee_km":1218.9266402992,"semimajor_km":7595.8156477883,"source":"CELESTRAK","updated_at":"2026-09-20T09:00:44.677885Z"}}